This is the latest recevied weather packets stored in our database for station/object K2YYD-2. If no packets are shown the sender has not sent any weather packets the latest 1 day(s).
| Time | Temp. | Humidity | Pressure | Rain* | Wind** | Luminosity | Snow |
|---|---|---|---|---|---|---|---|
| 1777995662 | 21.11° C | 62% | 1008.2 hPa | 0 mm | 1.34 m/s, 305° | 916 W/m² | - |
| 1777995542 | 21.11° C | 63% | 1008.1 hPa | 0 mm | 1.34 m/s, 133° | 916 W/m² | - |
| 1777995423 | 21.11° C | 62% | 1008.1 hPa | 0 mm | 1.34 m/s, 311° | 916 W/m² | - |
| 1777995303 | 21.11° C | 62% | 1008.1 hPa | 0 mm | 1.34 m/s, 162° | 911 W/m² | - |
| 1777995183 | 21.11° C | 62% | 1008 hPa | 0 mm | 1.34 m/s, 154° | 908 W/m² | - |
| 1777995063 | 21.11° C | 61% | 1008.1 hPa | 0 mm | 1.34 m/s, 212° | 900 W/m² | - |
| 1777994942 | 21.11° C | 62% | 1008.1 hPa | 0 mm | 1.34 m/s, 189° | 856 W/m² | - |
| 1777994823 | 21.11° C | 61% | 1008.2 hPa | 0 mm | 1.34 m/s, 324° | 603 W/m² | - |
| 1777994703 | 21.11° C | 62% | 1008.3 hPa | 0 mm | 1.34 m/s, 200° | 167 W/m² | - |
| 1777994582 | 20.56° C | 62% | 1008.3 hPa | 0 mm | 1.34 m/s, 178° | 123 W/m² | - |
| 1777994462 | 20.56° C | 63% | 1008.3 hPa | 0 mm | 1.34 m/s, 204° | 134 W/m² | - |
| 1777994342 | 20.56° C | 62% | 1008.3 hPa | 0 mm | 1.34 m/s, 78° | 329 W/m² | - |
| 1777994220 | 20.56° C | 63% | 1008.4 hPa | 0 mm | 1.34 m/s, 289° | 737 W/m² | - |
| 1777994099 | 20.56° C | 63% | 1008.4 hPa | 0 mm | 1.34 m/s, 294° | 860 W/m² | - |
| 1777993980 | 20.56° C | 63% | 1008.4 hPa | 0 mm | 1.34 m/s, 135° | 711 W/m² | - |
| 1777993860 | 20.56° C | 63% | 1008.4 hPa | 0 mm | 1.34 m/s, 197° | 663 W/m² | - |
| 1777993740 | 21.11° C | 63% | 1008.4 hPa | 0 mm | 1.34 m/s, 173° | 752 W/m² | - |
| 1777993620 | 21.11° C | 63% | 1008.5 hPa | 0 mm | 1.34 m/s, 137° | 739 W/m² | - |
| 1777993500 | 21.11° C | 62% | 1008.5 hPa | 0 mm | 1.34 m/s, 289° | 732 W/m² | - |
| 1777993379 | 21.11° C | 62% | 1008.5 hPa | 0 mm | 1.34 m/s, 181° | 839 W/m² | - |
| 1777993260 | 20.56° C | 62% | 1008.5 hPa | 0 mm | 1.34 m/s, 169° | 476 W/m² | - |
| 1777993139 | 20.56° C | 62% | 1008.5 hPa | 0 mm | 1.34 m/s, 156° | 123 W/m² | - |
| 1777993020 | 20.56° C | 63% | 1008.5 hPa | 0 mm | 1.34 m/s, 261° | 348 W/m² | - |
| 1777992900 | 20.56° C | 63% | 1008.5 hPa | 0 mm | 1.34 m/s, 88° | 815 W/m² | - |
| 1777992779 | 20.56° C | 63% | 1008.5 hPa | 0 mm | 1.34 m/s, 339° | 815 W/m² | - |
* Rain latest hour (hover to see other rain measurements)
** Current wind speed in m/s (hover to see current wind gust speed)